Wind_Speed
4 5 6 4 1 3 4 4 6 5 4 4 5 5 5 7 4 3 5 3 1 3 1 4 3 4 3 3 2 1 1 2 2 3 3 5 6 6 7 7 8 9 9 9 11 10 10 10 10 10 11 12 11 11 12 14 15 15 14 14 13 10 9 9 7 7 6 4 2 1 1 1 2 3 4 5 7 10 11 12 13 14 15 16 16 16
3 7 4 1 3 3 4 4 4 4 3 4 5 6 5 7 2 5 5 4 3 5 1 5 3 4 3 2 3 3 3 2 1 2 2 4 6 7 9 9 9 10 10 11 12 12 11 11 11 10 11 13 14 16 18 20 21 20 20 19 19 17 14 13 12 11 10 8 6 3 2 1 1 2 3 5 7 9 10 13 14 14 15 15 15 15
6 8 3 3 2 2 3 4 5 6 5 5 5 6 6 4 1 4 6 6 4 5 2 6 4 3 5 3 3 4 4 3 2 1 1 4 6 8 9 10 11 12 12 12 13 13 13 13 12 12 14 17 19 20 21 22 21 20 19 18 17 15 14 12 11 10 8 7 5 3 2 2 3 3 5 7 8 9 9 11 13 14 15 15 16 16
6 3 3 2 1 4 6 4 6 7 6 7 6 7 7 3 3 2 5 6 4 4 2 6 5 4 6 5 5 5 5 5 5 4 3 4 6 7 9 9 11 12 13 13 14 14 14 14 15 18 21 23 22 21 20 19 18 17 16 16 14 13 11 10 10 9 8 8 7 6 6 7 7 8 8 7 6 6 9 10 12 15 17 18 18 18
7 3 5 2 4 6 8 6 8 8 6 8 7 8 8 4 4 4 1 1 4 4 5 6 6 5 7 8 7 7 7 7 7 7 6 5 6 6 8 9 10 11 12 13 14 14 15 17 20 23 24 22 20 19 17 16 16 15 14 13 12 11 10 9 9 9 10 10 10 10 10 10 10 10 9 6 5 6 7 8 10 14 16 17 18 18
5 3 2 6 6 6 9 8 8 7 7 8 7 7 7 6 5 3 2 4 5 5 7 8 7 3 8 10 8 8 8 9 9 10 9 8 9 9 9 10 10 10 10 11 13 14 16 21 23 23 21 19 18 16 15 15 14 13 12 11 10 9 8 8 10 10 11 11 11 11 10 10 9 9 9 8 8 8 8 8 9 11 13 14 15 16
1 2 1 6 6 7 9 8 5 4 8 6 0 0 3 5 7 6 5 5 6 6 5 9 8 4 5 11 11 10 10 11 11 11 12 12 12 12 12 11 11 10 11 12 13 14 16 19 20 20 19 17 16 15 14 13 12 11 10 9 9 8 8 10 11 11 12 12 12 11 11 10 9 9 10 11 11 11 11 10 10 10 11 12 13 14
3 3 4 5 6 7 8 5 3 4 9 3 5 3 2 6 8 8 8 6 7 7 4 10 9 7 5 7 12 12 11 11 12 12 14 15 15 15 13 11 11 12 12 13 13 13 14 15 17 18 18 16 14 13 12 10 9 9 8 8 8 8 10 10 11 11 11 12 12 12 12 11 11 11 11 12 12 12 12 12 12 11 11 12 12 13
3 4 4 5 7 6 3 2 3 4 7 2 5 4 5 7 9 9 8 8 8 7 7 9 9 8 5 5 10 11 11 12 14 15 15 17 18 17 15 13 13 12 12 13 13 13 14 15 17 17 16 14 12 11 9 8 8 7 7 7 8 9 10 9 10 10 11 12 12 13 13 13 13 13 12 12 12 12 12 13 13 13 13 12 12 12
2 1 3 5 6 3 2 2 2 5 5 3 4 5 6 8 9 9 8 8 7 7 10 8 9 7 5 6 9 8 9 12 13 13 14 18 20 18 16 15 15 14 13 12 13 13 14 16 16 15 13 11 10 8 7 7 7 7 7 8 8 8 8 8 8 9 10 11 13 13 13 14 14 14 14 13 13 14 14 14 14 14 14 14 13 12
2 3 1 4 5 4 2 2 2 4 5 4 5 8 8 9 9 8 7 6 7 8 7 4 9 7 5 5 8 7 8 10 11 12 14 18 21 20 18 17 17 16 14 14 13 12 13 15 14 12 11 9 7 6 6 6 6 6 6 6 6 5 6 6 7 8 10 11 12 12 13 13 13 14 14 14 14 15 15 15 15 16 16 16 15 15
6 6 4 3 2 2 3 5 5 5 5 5 7 7 7 7 6 6 6 5 7 6 2 5 6 8 6 3 6 8 7 7 10 13 15 19 21 22 20 19 18 17 16 16 14 13 13 14 13 11 9 7 5 4 4 4 4 3 2 2 3 4 4 5 7 8 9 10 10 11 11 12 13 13 13 13 14 15 16 16 17 17 18 18 18 18
6 7 6 6 4 4 6 6 6 7 6 6 6 6 6 6 4 5 5 4 6 3 6 5 3 5 7 4 3 8 8 7 9 12 16 21 23 23 22 20 20 19 18 17 16 14 14 13 11 10 8 6 4 3 2 1 1 0 1 2 3 4 5 6 6 6 7 8 8 10 11 12 13 13 14 14 15 16 17 18 19 19 20 20 20 21
4 5 9 8 6 6 7 6 4 4 4 5 4 4 5 6 6 6 6 6 6 1 5 5 1 5 8 2 3 5 5 5 8 12 16 22 24 24 23 22 21 20 19 18 16 15 14 13 11 10 9 6 5 3 2 2 2 2 3 4 4 4 6 6 6 6 7 8 9 10 11 12 13 14 15 17 18 19 20 21 22 22 22 23 23 24
7 3 7 7 4 7 8 5 5 4 3 4 3 4 7 5 6 7 6 6 7 5 1 4 3 6 5 2 6 4 3 3 7 10 15 20 23 23 23 23 22 21 20 18 17 16 14 13 12 11 10 7 5 4 4 4 4 5 5 6 6 6 8 9 10 10 11 11 12 12 13 14 15 17 18 19 20 22 23 24 25 26 26 26 27 27
8 6 4 5 3 5 5 1 2 5 5 2 1 5 5 3 4 6 7 7 7 8 7 5 5 5 1 6 6 5 4 5 8 10 15 19 21 22 22 23 23 22 21 19 17 16 14 13 13 12 11 9 7 6 6 6 6 7 8 8 9 9 10 11 12 13 14 14 15 15 16 17 18 20 21 22 23 24 25 26 27 28 29 29 30 31
7 4 7 6 3 4 2 0 2 5 4 1 3 5 0 3 5 7 6 2 2 7 8 6 7 6 3 6 6 6 5 7 9 11 15 19 21 22 23 24 23 22 21 20 18 16 14 13 13 13 12 11 10 9 8 8 9 10 11 11 12 13 13 14 14 15 16 17 19 20 20 21 22 23 24 26 27 28 28 29 30 31 31 32 33 33
5 6 6 8 7 6 3 2 5 5 5 4 4 1 3 1 4 5 5 3 4 8 7 6 9 8 6 3 6 8 8 9 10 12 14 17 21 23 23 23 23 22 21 19 18 16 14 14 14 14 14 14 13 11 10 11 12 13 14 15 16 17 17 18 18 18 19 20 22 23 24 26 27 27 28 29 30 31 32 33 33 34 34 34 34 34
2 8 4 7 6 6 6 5 6 6 6 6 5 2 1 5 4 4 4 5 7 9 7 9 11 8 8 5 6 9 10 10 11 12 13 16 21 23 24 23 22 21 20 19 18 17 15 14 14 14 15 15 15 14 15 15 16 16 17 18 19 21 22 22 23 23 24 25 26 27 28 29 30 31 31 32 32 33 34 35 35 35 35 34 33 33
2 7 4 4 4 4 6 7 7 6 6 5 5 4 4 5 5 5 5 5 7 8 8 10 10 7 6 4 3 4 6 10 11 12 13 17 22 23 23 23 23 22 21 19 18 17 15 14 14 14 14 15 15 16 17 19 21 21 21 21 21 22 23 24 25 26 28 29 30 32 32 33 33 32 33 33 33 35 37 37 37 37 37 36 34 33
3 5 5 3 4 4 6 5 6 6 4 5 6 6 5 4 4 5 6 7 7 8 9 8 9 7 2 1 3 3 3 6 10 11 11 15 20 22 22 23 23 23 22 19 17 16 15 14 14 13 14 15 15 16 18 20 23 24 25 24 22 23 24 25 26 27 28 30 31 32 33 34 34 34 35 35 35 37 38 39 39 39 39 38 37 35
4 4 7 6 4 7 5 1 2 4 3 5 6 6 7 6 5 6 8 9 7 8 9 8 10 8 0 3 2 2 2 3 5 7 8 11 16 20 22 22 22 22 21 19 17 15 13 12 12 12 13 14 15 16 17 18 19 22 24 24 23 24 25 26 28 29 31 32 33 33 33 33 34 35 36 37 36 37 37 37 37 36 36 37 37 37
1 4 8 9 9 9 2 5 3 3 4 8 8 8 9 7 7 8 9 8 6 8 9 8 10 7 3 5 2 3 2 2 1 4 5 7 10 15 19 20 20 21 20 18 16 14 12 11 12 13 15 15 16 17 17 16 15 17 20 21 24 26 28 30 31 32 33 34 35 36 36 36 35 35 35 36 37 37 37 36 36 35 35 35 35 36
2 4 8 8 9 10 5 4 2 3 5 8 9 9 9 8 9 9 8 7 6 8 8 7 10 7 4 4 2 3 4 3 3 4 4 5 6 10 15 18 20 20 19 17 15 13 12 12 13 14 15 15 14 14 14 13 14 14 17 21 24 27 29 31 31 32 33 34 35 36 36 36 36 35 35 35 35 36 36 36 36 36 37 37 37 37
3 5 7 7 8 8 7 5 4 5 6 7 7 7 8 11 10 8 6 5 6 10 11 9 10 7 3 5 3 4 5 4 5 5 3 5 6 8 12 16 18 19 18 16 14 12 11 11 11 12 12 11 11 11 11 12 14 16 19 21 24 26 29 30 32 33 33 32 33 33 33 33 33 33 33 34 35 37 37 37 37 37 38 39 40 40
5 7 7 7 9 8 8 6 3 1 4 5 6 7 9 12 12 8 7 7 8 10 12 11 11 10 3 7 7 6 6 6 6 6 5 5 6 8 11 13 16 16 16 15 13 11 10 10 10 10 10 10 11 12 13 15 17 19 21 22 23 25 28 30 31 31 30 30 30 30 30 31 31 32 33 34 35 36 37 37 37 38 38 38 40 41
6 8 10 11 13 12 13 12 7 6 8 9 10 11 11 13 14 11 9 9 9 9 11 12 13 15 12 9 10 10 7 7 6 6 6 6 7 8 10 13 14 14 14 13 11 10 9 8 9 9 10 11 12 14 15 17 19 21 22 23 24 25 27 28 28 27 27 28 28 28 29 29 31 32 33 33 34 34 35 35 36 36 37 37 37 39
7 9 13 16 18 17 19 19 16 14 15 15 16 16 15 14 16 15 12 12 10 9 12 15 14 16 16 14 14 14 9 6 6 6 7 8 9 9 11 13 14 13 13 11 9 8 7 7 7 8 10 12 14 16 18 20 21 22 23 24 25 25 25 25 25 25 26 26 27 28 28 29 30 30 31 32 32 32 33 33 34 35 35 35 37 38
7 11 14 16 19 20 20 20 20 18 17 17 18 19 19 18 18 18 17 16 13 12 16 17 17 19 18 16 17 15 9 6 6 6 7 8 9 11 12 13 13 13 11 9 7 6 5 6 7 8 10 13 15 18 20 21 22 23 23 24 24 24 23 23 24 25 26 26 27 28 28 28 29 29 30 31 31 32 33 33 34 35 35 35 36 37
6 10 14 17 19 21 21 21 21 20 20 21 21 21 22 21 22 22 20 19 19 20 22 22 23 23 19 18 19 14 6 6 6 6 8 10 11 12 12 12 12 11 9 7 5 5 5 6 8 10 12 15 17 19 21 22 22 22 22 22 22 22 22 23 24 25 26 27 28 27 27 27 28 29 30 31 32 33 33 34 35 35 35 35 35 36
6 9 13 14 15 18 21 21 21 22 23 24 25 25 24 23 23 23 21 20 19 21 23 24 24 22 18 16 15 8 4 6 7 8 10 11 11 12 12 11 10 8 7 5 4 4 5 8 10 12 15 17 19 20 21 21 21 21 21 22 22 22 22 23 25 26 25 26 27 27 27 28 29 30 31 31 32 33 33 34 35 35 35 36 36 37
8 9 11 12 12 16 19 21 23 25 25 25 28 28 25 22 21 20 19 18 17 19 22 21 19 17 12 6 5 5 6 7 8 9 10 10 11 11 11 10 8 6 5 4 4 6 8 11 13 15 17 19 19 20 20 20 20 21 21 21 21 22 23 24 25 25 25 26 27 28 28 29 30 30 31 32 32 33 34 34 35 35 36 36 37 38
10 10 11 12 12 15 19 21 22 22 21 20 21 22 22 23 24 22 19 19 20 19 17 16 16 12 4 5 7 7 7 7 8 8 9 10 10 10 9 8 6 4 3 4 6 9 11 13 15 16 18 19 19 19 19 20 21 21 21 22 22 23 24 24 24 25 26 27 28 29 30 30 30 32 33 33 34 34 35 35 35 36 37 37 39 39
14 13 12 11 11 14 20 20 17 16 17 15 12 15 18 22 24 23 21 21 21 19 16 17 15 6 5 7 7 7 7 7 7 7 7 8 8 8 7 6 4 3 3 6 9 11 13 15 16 17 18 19 19 19 20 20 20 21 22 23 23 24 24 25 25 26 28 29 29 29 30 30 32 34 35 35 35 36 36 37 37 37 36 37 38 39
15 15 12 10 11 13 15 15 14 14 14 11 10 13 16 18 21 21 22 22 22 21 21 22 20 11 7 7 6 7 8 8 8 8 7 7 7 6 6 5 3 3 5 8 11 13 14 15 17 18 19 19 19 19 19 20 20 22 23 23 24 24 24 25 26 27 28 29 29 29 30 31 34 36 36 36 36 36 37 38 38 38 37 37 38 39
16 14 11 11 11 11 11 12 13 14 13 13 12 9 7 11 15 17 18 19 20 20 20 21 21 14 8 8 8 8 9 9 8 9 8 8 7 6 5 4 3 5 7 10 12 13 15 16 17 18 19 19 19 19 20 21 22 23 23 23 24 24 25 26 27 28 28 29 29 29 31 32 34 35 36 36 36 37 37 38 39 39 39 38 38 39
18 14 13 12 11 10 13 14 15 16 17 18 16 10 8 11 14 12 13 15 18 19 18 18 16 10 9 10 10 10 10 8 7 8 10 9 7 6 4 3 4 7 9 11 12 14 15 16 17 18 19 19 19 20 21 22 22 23 23 23 23 24 25 26 27 28 28 29 29 29 30 31 32 33 34 35 36 37 38 39 40 41 41 39 38 39
18 16 15 13 10 10 13 14 15 16 15 15 16 12 11 13 13 11 12 13 15 15 15 15 12 10 11 11 11 11 9 7 6 7 12 10 6 5 4 4 6 8 9 11 12 14 15 16 16 17 18 19 20 21 21 21 21 22 23 24 23 24 24 25 26 27 28 29 29 28 29 29 30 31 33 35 37 39 40 41 41 41 42 40 38 40
19 16 14 14 12 12 14 14 13 12 11 13 12 6 9 9 8 8 11 11 8 8 12 11 10 11 12 12 13 11 7 6 5 6 12 9 5 5 5 6 6 8 10 11 13 14 15 16 17 17 18 19 20 20 19 20 21 21 23 23 23 24 24 25 26 26 28 28 28 28 29 29 29 31 34 36 38 39 39 40 42 43 43 42 43 45
15 12 12 14 14 13 14 14 12 10 10 10 6 7 9 8 8 8 10 7 1 4 7 9 11 12 13 14 13 9 6 4 0 8 10 5 3 4 5 6 7 10 11 13 14 15 16 16 16 17 18 19 19 18 19 20 21 22 23 24 24 25 25 26 27 27 28 28 28 28 29 29 30 32 33 35 37 38 40 42 44 46 45 46 47 47
12 10 11 12 13 14 15 14 11 10 9 7 6 10 11 11 9 9 8 1 4 5 6 9 12 12 13 14 11 6 3 2 5 6 4 1 1 3 5 6 8 11 12 13 15 16 16 15 15 17 17 17 17 18 19 19 20 22 23 23 25 26 26 27 28 28 28 28 28 28 28 29 31 31 32 34 35 38 42 45 43 43 43 43 43 43
10 9 9 11 11 12 12 12 12 11 6 7 8 8 10 9 7 5 1 4 5 7 8 10 12 11 10 10 7 3 4 5 4 2 1 2 3 5 7 8 10 12 13 14 15 15 15 15 16 16 16 16 17 18 19 20 21 23 23 23 25 26 26 27 27 27 27 28 28 28 28 29 30 29 30 34 36 37 39 41 41 41 40 38 37 37
9 9 9 10 9 9 10 12 12 9 1 8 8 5 4 4 2 3 5 4 5 8 9 9 10 10 8 6 4 3 3 2 0 1 2 4 5 7 8 10 12 13 14 14 14 14 15 15 15 15 16 17 18 18 19 19 21 23 23 24 25 25 25 25 25 25 27 27 26 26 28 29 28 28 31 34 34 34 36 40 41 37 33 32 31 32
7 7 9 8 7 8 10 8 6 3 4 6 3 2 3 4 6 5 3 3 5 7 8 8 8 9 8 5 3 3 3 3 4 3 5 6 7 8 10 11 12 13 14 14 14 14 14 13 14 15 16 17 17 17 18 19 20 22 23 23 24 24 25 25 24 24 26 26 25 27 29 28 27 29 31 30 28 30 35 39 38 32 29 29 30 30
5 5 7 7 6 8 8 4 2 1 1 5 6 6 6 6 5 5 4 3 3 5 7 7 7 9 8 5 5 6 5 5 5 5 7 8 8 10 11 12 14 14 15 14 13 12 12 12 14 15 16 17 17 17 17 18 20 21 22 21 22 22 23 24 23 24 24 24 25 27 27 27 27 29 29 27 25 28 34 37 37 34 32 32 33 34
12 12 10 7 8 10 8 5 4 3 1 3 5 4 4 4 3 2 2 2 4 8 9 8 8 9 9 8 8 7 7 7 7 8 9 9 10 11 12 13 14 14 14 13 12 11 12 13 14 15 16 17 17 17 17 18 18 20 20 21 21 20 21 23 23 22 22 23 24 25 25 26 27 28 29 29 28 28 32 35 36 37 37 37 39 40
11 11 9 8 9 9 6 3 2 1 2 4 5 4 3 4 4 3 4 5 7 11 12 10 9 9 9 9 8 8 8 8 10 11 11 11 12 12 13 13 13 13 12 11 10 10 11 12 13 15 16 17 17 17 17 17 18 19 20 20 20 20 21 22 22 22 22 22 23 24 24 25 27 28 30 31 31 31 33 35 36 37 39 41 42 43
7 11 9 8 9 8 6 1 2 2 3 4 4 4 5 7 7 6 7 6 7 10 11 10 9 9 9 9 9 9 8 9 10 10 10 11 12 12 12 12 12 12 10 9 9 10 11 12 13 15 16 17 17 16 17 17 18 19 20 20 19 19 20 21 22 22 22 22 23 25 24 25 27 29 29 31 32 33 35 37 38 39 41 42 43 45
12 9 8 7 8 9 8 4 3 5 5 5 7 6 6 6 6 8 8 7 7 8 9 9 10 9 10 10 9 9 9 9 10 9 10 11 11 11 12 11 11 9 8 8 9 9 10 11 13 15 17 17 16 16 17 17 17 19 19 19 19 19 19 21 22 21 21 22 24 24 24 25 28 30 29 31 35 36 36 38 40 41 42 43 44 44
14 9 7 7 8 8 4 0 0 2 2 3 6 6 5 4 5 7 9 9 9 9 9 10 11 10 10 10 9 9 9 9 9 9 9 10 11 11 11 10 8 7 6 7 8 9 10 12 13 15 17 16 15 16 17 17 17 18 18 19 19 18 18 20 20 19 21 22 22 22 24 26 30 32 30 32 37 38 39 40 41 41 42 44 44 41
16 12 10 10 9 8 4 3 7 8 6 5 6 5 5 6 7 9 10 11 11 11 10 11 11 10 10 10 9 9 8 8 8 8 9 10 10 10 9 7 6 5 6 7 7 8 11 12 13 15 16 16 16 16 17 17 18 19 18 18 19 17 16 17 19 19 21 22 21 22 24 26 29 33 33 34 37 38 39 42 43 42 42 42 40 39
Wind_Direction
258 250 228 241 309 6 351 326 315 326 313 282 271 267 273 276 277 104 127 132 343 293 69 84 101 116 109 99 97 91 157 187 179 157 139 130 131 118 110 106 103 107 112 120 126 125 125 126 126 128 135 140 137 130 123 114 109 106 104 104 106 114 121 114 108 106 105 105 98 62 16 345 320 303 278 273 275 273 268 264 261 264 265 264 264 264
245 255 236 183 6 354 326 308 292 282 269 261 266 272 269 264 259 105 134 159 200 264 178 133 163 139 136 141 147 191 202 196 184 145 141 147 138 122 125 130 126 125 126 127 126 124 124 124 125 121 123 129 128 121 114 109 105 102 100 100 100 101 102 101 99 99 96 91 85 77 53 25 325 305 291 276 273 273 271 266 262 260 263 264 265 263
226 247 204 110 12 305 275 274 257 255 255 255 263 272 273 280 301 121 139 152 187 265 209 171 203 167 158 177 179 201 208 205 205 171 171 182 162 140 141 148 146 142 138 134 131 130 130 128 127 123 122 125 120 113 108 104 102 98 97 96 94 92 92 91 89 83 76 67 63 54 18 341 315 303 292 280 275 278 277 270 263 259 257 257 256 256
242 249 100 101 299 267 256 235 239 252 249 250 256 270 277 298 297 222 138 134 176 271 251 193 217 196 167 177 188 198 200 198 203 198 195 206 189 158 153 158 155 151 146 140 135 132 131 129 128 126 124 121 115 109 105 102 99 97 94 89 85 81 76 72 67 57 46 31 14 1 350 336 328 322 312 298 288 287 282 272 265 261 261 261 260 260
269 19 57 290 264 264 265 243 240 255 258 254 245 263 285 303 289 278 45 105 198 226 211 199 235 225 188 192 188 181 188 188 191 196 191 195 199 174 160 163 161 155 148 140 133 130 129 128 128 125 122 117 113 110 105 101 98 94 89 84 79 74 67 59 51 38 23 10 357 348 342 337 333 330 327 318 304 301 296 287 278 271 268 270 270 270
267 52 33 277 262 256 264 256 247 256 275 271 240 248 282 301 287 263 284 285 261 240 184 195 267 258 179 195 191 171 184 190 189 196 195 192 198 195 184 176 169 157 146 139 134 131 129 128 126 122 119 116 113 110 105 101 95 90 85 79 74 69 61 48 36 21 5 354 344 338 334 332 331 328 325 318 308 306 303 297 293 288 282 282 283 280
251 108 249 276 276 259 257 256 234 236 270 278 151 226 273 280 275 261 262 262 277 295 172 190 268 296 184 198 188 174 188 192 193 200 200 200 202 201 195 182 173 163 150 142 136 134 132 128 126 123 120 118 114 110 105 99 93 87 80 74 68 58 47 33 19 3 350 341 334 333 333 333 335 330 323 319 314 310 308 304 299 294 288 287 287 285
184 204 228 256 268 259 255 249 161 215 263 291 62 35 283 265 268 269 270 254 268 294 222 203 237 273 259 198 171 175 189 194 199 204 201 202 203 199 196 184 173 166 157 151 145 141 137 132 130 127 123 120 116 110 103 97 89 83 76 68 58 43 33 19 4 350 339 336 336 337 339 339 338 334 328 325 321 317 315 314 310 305 298 291 286 284
160 249 258 263 264 261 279 42 102 224 258 21 42 344 289 274 273 271 271 266 268 277 261 225 212 251 272 147 154 178 196 203 204 205 202 202 201 196 193 186 176 170 164 160 154 149 143 140 136 131 127 123 117 109 102 94 82 75 68 56 42 30 20 5 351 340 333 332 333 334 334 335 333 331 331 328 324 321 319 317 317 316 313 308 301 292
73 325 310 278 272 285 8 62 117 242 266 20 357 289 264 257 257 256 258 269 267 255 268 244 187 231 272 149 161 188 207 217 207 202 203 199 197 193 189 185 179 175 171 166 161 157 152 148 141 136 130 124 117 110 98 85 72 63 53 41 32 19 3 349 337 326 321 321 322 324 326 327 328 328 327 326 323 320 320 319 317 316 317 317 314 309
120 109 243 254 280 337 345 226 201 251 286 316 285 266 259 246 235 239 247 261 265 249 257 215 180 230 274 173 175 187 208 220 203 193 195 194 193 190 188 186 182 179 176 173 169 167 162 155 148 142 134 126 118 104 87 76 66 56 47 33 17 358 339 325 312 304 305 308 312 317 319 321 322 322 323 324 323 321 321 320 317 316 315 314 314 314
192 195 199 184 222 305 262 232 206 218 257 271 266 268 274 261 234 234 230 216 249 254 147 127 179 227 257 227 182 184 194 209 201 190 188 190 190 187 187 187 185 182 181 178 176 176 172 164 157 150 141 132 120 103 96 90 77 67 52 15 340 322 303 292 289 289 295 301 306 308 309 310 310 313 316 317 318 317 317 317 316 317 316 315 314 312
217 208 176 157 178 225 246 240 200 197 218 238 256 270 276 278 261 250 244 226 255 266 113 125 185 225 249 270 177 184 187 196 205 195 189 188 187 186 186 186 186 186 185 184 183 182 180 175 169 162 155 153 151 143 144 136 112 162 269 287 294 292 281 279 283 286 290 293 296 297 298 301 302 305 309 311 312 312 313 313 313 315 316 315 315 313
248 180 169 184 182 190 230 257 233 195 205 234 268 288 279 288 286 273 270 266 271 268 124 147 201 257 254 242 118 168 173 180 200 198 194 190 187 186 186 186 188 190 190 190 189 187 185 182 179 175 174 177 180 185 209 235 236 237 252 264 270 271 267 262 258 262 269 275 280 284 288 293 297 301 303 305 307 308 310 310 310 312 312 312 312 312
274 237 180 187 155 169 209 266 317 315 284 268 298 287 272 281 284 282 288 286 289 304 258 173 195 268 267 119 107 116 116 163 197 197 195 191 189 187 187 190 192 192 194 194 193 193 190 188 188 189 191 193 199 210 226 235 239 246 253 257 256 255 256 253 251 256 264 270 276 281 286 292 295 297 299 300 301 302 304 305 306 307 308 308 308 308
269 267 145 128 107 169 199 245 329 293 277 239 246 254 258 301 302 289 295 301 305 299 283 230 230 268 213 120 124 125 134 175 191 191 189 189 188 188 190 194 195 196 198 198 198 198 196 196 199 202 204 206 213 219 225 232 239 250 256 256 254 255 258 260 261 265 269 272 276 279 284 289 291 293 294 295 295 296 296 297 298 300 301 302 303 303
264 266 121 133 182 169 169 343 210 265 291 193 237 254 20 22 311 284 280 283 277 274 267 241 247 253 181 147 144 148 161 176 186 189 189 189 189 190 195 198 198 200 201 202 202 203 203 205 208 213 216 218 224 231 235 239 244 251 255 256 257 260 262 265 268 270 271 274 278 281 282 284 285 286 287 289 291 292 293 293 294 295 296 297 298 299
279 276 165 172 203 161 131 267 212 234 272 263 265 308 67 344 261 261 270 266 256 265 263 248 253 256 255 223 151 164 178 177 187 190 189 191 192 196 200 200 201 203 203 204 206 206 208 212 216 221 225 228 231 238 243 246 250 254 258 261 264 267 268 269 270 269 269 269 273 276 278 280 280 280 281 282 284 286 288 290 291 292 293 293 293 294
279 276 218 176 199 155 153 230 223 201 226 261 299 353 269 266 247 215 244 268 272 272 270 265 262 257 261 249 155 169 183 178 184 188 190 195 198 202 203 201 202 203 203 205 206 208 210 214 221 226 231 236 240 245 249 249 252 257 263 266 269 272 274 274 273 272 271 271 272 273 274 275 275 275 276 276 277 279 281 283 285 287 287 287 287 287
248 269 259 163 163 154 178 224 237 209 191 224 265 242 229 267 277 259 256 267 273 275 277 277 271 258 257 245 146 148 170 173 181 187 195 202 202 205 204 202 204 203 204 206 205 209 214 218 224 229 234 240 244 247 251 254 258 261 265 268 272 277 279 279 278 276 276 275 275 275 274 273 271 270 269 269 270 272 275 278 280 281 282 282 282 281
239 246 262 216 156 205 231 224 241 246 216 210 232 235 224 225 256 268 265 256 256 265 272 276 271 267 278 115 119 95 118 164 182 191 202 209 207 208 207 205 206 205 204 205 205 210 216 220 226 232 237 243 246 250 254 260 265 266 266 267 272 277 279 280 279 279 279 278 276 275 273 272 271 269 268 267 267 268 271 274 275 277 278 278 279 279
244 241 260 257 224 239 251 62 359 314 298 268 261 262 259 252 255 264 260 248 238 253 264 271 273 273 106 108 126 106 105 145 186 207 216 217 213 211 209 206 206 206 203 201 203 209 214 219 227 233 238 244 249 254 258 261 264 267 267 266 270 276 281 283 284 284 283 280 277 274 271 270 269 269 268 266 266 266 267 269 270 272 273 274 275 276
302 275 262 262 262 260 261 73 25 321 289 272 268 268 269 264 254 256 263 262 247 247 255 263 272 271 124 116 119 122 129 121 176 226 234 231 222 214 210 206 204 202 198 196 199 204 212 222 232 239 247 253 257 261 265 265 264 265 268 271 276 282 285 287 286 284 281 278 277 275 273 272 270 269 268 267 266 266 266 266 267 268 269 270 272 273
143 262 259 262 266 258 222 143 181 227 242 254 250 245 249 251 251 255 269 288 274 252 252 255 260 256 130 119 139 144 150 160 173 199 228 234 226 214 207 203 201 199 193 190 194 203 216 230 240 248 254 258 260 264 266 266 266 266 271 278 282 285 285 284 283 281 280 279 278 277 276 275 273 271 270 268 267 267 266 266 267 267 267 268 269 270
186 250 258 265 273 260 233 213 209 203 218 243 247 234 235 244 251 255 264 278 264 253 257 257 259 260 139 137 186 174 166 188 184 174 207 237 221 206 201 201 202 198 192 192 198 208 220 231 240 245 249 250 253 259 262 266 271 274 277 280 282 283 283 283 283 282 282 281 279 279 277 277 276 274 273 271 270 270 270 269 269 269 268 269 269 270
238 262 258 259 270 266 256 257 270 241 229 237 240 237 236 234 230 232 249 252 246 251 252 246 257 273 218 165 194 204 198 218 205 177 194 225 208 193 192 197 200 196 192 196 201 206 212 222 233 240 245 251 259 266 269 274 278 280 282 283 282 283 284 285 285 284 283 282 281 281 280 280 280 279 277 276 275 274 274 274 274 273 273 272 272 271
253 261 252 254 261 266 272 280 301 309 282 267 261 255 245 234 230 234 247 251 255 266 258 247 256 271 264 243 252 261 245 231 225 216 213 196 178 182 189 193 196 193 190 192 196 200 208 222 236 246 253 260 267 271 275 280 284 285 286 286 284 284 285 285 285 286 286 285 284 284 285 285 284 283 282 281 280 279 278 278 278 276 276 275 274 273
253 256 250 254 257 261 269 275 279 281 275 271 273 270 260 249 240 237 242 251 261 269 263 259 262 269 272 271 275 285 281 246 237 245 228 191 175 184 188 188 189 186 185 190 196 202 217 233 244 254 261 267 272 277 282 286 288 289 288 287 286 286 285 285 286 288 288 288 287 287 287 287 286 285 285 284 283 282 281 280 279 277 276 276 274 273
257 260 256 261 262 260 264 269 272 273 270 265 266 266 264 259 249 244 246 249 250 254 261 270 273 272 275 276 277 286 283 253 255 256 227 200 190 191 188 188 189 189 191 197 201 206 223 240 252 261 268 275 281 285 290 291 291 291 289 288 289 288 287 288 289 289 290 289 289 288 288 288 288 287 287 286 285 283 281 281 280 278 276 275 273 272
258 262 261 266 268 265 264 267 268 268 267 264 261 258 258 257 254 255 256 250 246 251 261 270 273 270 269 273 279 284 260 240 263 252 223 215 206 198 194 195 196 197 200 202 204 218 239 254 268 277 281 286 291 293 295 294 293 292 291 291 290 289 290 291 291 290 289 289 289 289 289 289 289 288 287 287 286 284 284 283 282 281 278 275 273 272
244 261 268 270 271 269 266 266 267 265 264 265 262 257 254 254 254 256 256 250 247 254 261 264 265 266 266 269 272 267 219 231 249 235 225 224 212 201 201 202 201 204 209 212 222 246 269 280 286 290 292 294 296 297 296 295 294 293 293 293 292 292 293 293 291 290 289 289 290 290 290 290 290 289 288 288 287 286 285 285 284 282 280 278 275 273
244 261 271 267 267 269 267 267 267 267 267 265 260 256 253 252 253 252 248 245 245 254 260 259 259 266 270 254 225 199 192 216 226 220 219 216 205 202 206 208 209 210 215 237 267 284 292 296 298 298 299 299 299 298 296 295 295 295 295 296 295 296 296 293 291 291 291 291 292 291 291 291 291 290 289 289 288 287 286 285 283 282 280 278 276 275
257 264 267 264 267 270 269 271 275 275 269 258 254 255 252 248 249 249 245 244 245 248 254 256 262 269 255 164 169 179 186 200 211 212 211 206 201 204 210 213 212 212 231 272 291 300 302 302 303 301 298 298 298 297 297 296 296 296 297 298 298 297 296 294 293 293 293 293 293 293 293 292 292 291 291 290 289 288 287 286 283 283 281 279 278 277
258 259 262 264 267 270 273 278 281 270 257 251 255 258 249 243 244 246 245 243 242 240 244 254 261 249 161 177 195 188 185 194 198 195 193 193 196 201 205 208 207 224 272 294 300 302 302 301 300 298 296 297 297 297 299 298 297 298 299 299 298 297 297 296 295 295 295 295 295 295 295 294 293 293 292 291 290 289 288 286 284 283 281 280 280 278
256 256 258 260 261 267 274 277 268 249 248 263 266 250 245 247 247 249 251 249 246 245 245 251 255 241 196 199 200 182 179 177 174 177 178 182 189 194 197 201 215 260 289 300 300 299 299 299 298 298 298 298 299 301 301 300 300 299 299 298 298 298 298 297 296 296 296 296 296 296 296 295 294 294 293 292 291 289 288 286 285 284 282 280 279 277
248 251 254 255 257 261 263 257 251 250 262 271 259 227 221 243 242 247 254 251 248 250 249 250 257 251 211 181 170 164 163 161 171 187 185 179 180 184 195 211 243 279 290 295 295 295 297 299 299 299 299 300 302 303 302 301 301 300 299 299 299 298 298 297 297 297 297 297 297 297 296 295 295 295 294 293 291 290 288 287 285 284 283 281 278 276
238 245 251 252 246 248 256 254 257 266 269 265 255 225 200 218 224 232 248 250 250 251 249 251 252 230 175 163 160 152 152 166 196 198 183 177 177 180 200 232 259 278 285 288 291 295 299 301 301 299 300 303 304 303 301 300 300 299 298 298 298 298 298 298 297 297 297 297 297 297 296 296 296 295 293 293 292 290 289 287 287 286 284 281 278 275
234 238 246 251 242 241 254 259 262 265 261 260 262 244 212 216 225 232 246 256 254 240 233 242 236 192 164 159 155 148 155 190 222 184 163 166 171 179 211 246 262 276 285 290 297 303 303 302 301 301 303 304 302 300 300 299 298 297 296 297 298 298 297 297 297 297 296 295 295 296 296 295 295 294 294 294 293 292 291 290 289 287 284 281 277 275
240 240 242 249 250 245 249 254 257 258 259 265 266 226 181 189 197 215 243 255 245 203 200 215 205 174 165 159 151 152 171 218 232 144 137 149 172 193 227 258 273 284 293 300 305 307 305 304 304 304 305 302 300 300 300 298 298 297 296 297 298 298 298 297 297 296 296 295 295 296 296 296 295 295 294 294 294 295 294 291 289 288 286 283 281 281
244 244 238 244 249 246 247 253 253 256 268 267 233 169 162 166 162 196 242 257 131 129 168 179 169 161 160 154 152 166 196 235 78 108 122 143 176 202 248 275 289 297 305 308 307 306 306 307 306 305 303 300 300 302 302 301 300 298 297 298 298 298 297 296 296 296 295 295 295 296 297 297 296 296 297 298 299 300 298 294 292 292 290 288 287 287
248 247 239 242 248 245 246 252 255 261 264 242 186 153 148 152 173 217 240 233 96 109 125 139 146 148 150 152 159 177 175 67 58 85 111 140 218 265 281 290 297 303 307 306 305 308 310 308 303 301 301 301 302 304 305 304 301 299 299 299 298 298 297 296 295 295 293 294 295 296 297 296 297 301 304 304 303 302 300 298 296 295 294 293 292 290
255 251 242 241 244 245 248 254 260 264 241 162 140 129 143 172 213 227 150 77 96 112 105 115 132 137 144 155 162 139 90 75 59 58 25 314 294 289 295 301 303 305 307 305 306 309 308 302 300 301 302 305 307 308 308 306 304 303 302 300 298 297 296 296 296 294 293 294 294 296 297 297 299 305 307 306 304 303 302 303 303 301 298 296 295 293
271 268 259 249 245 249 252 251 254 264 130 118 131 144 177 217 251 84 91 72 84 110 115 117 130 141 150 155 146 108 94 101 247 278 288 291 293 297 301 304 305 307 307 305 305 305 302 300 301 304 305 308 310 311 310 308 307 306 304 301 299 297 295 296 296 295 295 295 295 297 298 298 303 308 308 307 306 306 309 312 312 307 301 297 296 295
274 265 266 265 260 256 254 251 252 280 15 42 71 103 73 63 55 46 46 74 100 127 136 127 135 154 160 154 155 175 202 228 247 271 290 297 300 300 300 303 305 305 304 304 302 301 301 302 304 307 310 312 312 312 312 311 310 307 305 304 303 301 300 299 298 298 297 296 298 300 298 299 307 310 308 308 309 311 316 319 317 311 305 302 302 302
271 284 288 283 278 273 269 275 303 266 348 27 42 53 50 55 52 25 25 77 127 159 152 142 157 173 175 186 205 214 224 238 257 282 294 295 293 294 298 303 304 303 304 303 299 298 302 304 306 310 312 313 314 314 313 312 311 308 307 307 308 307 306 304 303 301 300 300 304 305 303 304 309 311 311 311 313 315 318 321 322 318 313 311 309 306
281 293 293 281 286 292 276 241 220 217 256 357 2 10 12 12 17 25 73 147 187 186 176 176 186 193 199 208 216 225 239 256 275 286 288 289 291 296 301 303 302 302 303 299 295 298 304 307 309 312 313 314 315 315 313 312 311 309 308 309 309 308 307 307 307 305 304 307 310 310 310 311 312 313 315 318 319 317 315 318 323 323 319 317 314 309
286 298 290 264 271 285 276 231 204 221 272 295 297 300 294 279 270 234 193 186 189 190 193 198 201 206 212 213 220 238 252 267 280 284 286 292 297 301 302 301 301 301 299 294 293 300 306 310 312 313 314 316 317 315 313 313 312 311 311 309 307 308 309 310 310 310 312 314 314 315 317 318 316 317 320 323 322 318 313 315 320 322 322 321 318 315
307 340 333 290 271 268 258 240 110 154 205 231 235 242 251 251 247 227 203 192 186 190 199 205 204 208 215 218 228 243 254 269 279 281 287 295 299 301 300 299 299 297 293 291 296 305 310 312 313 314 315 316 316 315 315 314 313 314 313 309 308 308 310 313 314 315 318 318 316 317 319 319 319 322 326 327 325 320 317 318 321 323 325 324 322 320
279 306 302 281 285 283 268 240 177 177 195 211 214 217 223 222 218 212 206 202 197 195 204 213 213 215 222 228 234 243 256 272 278 280 288 296 301 301 299 299 298 293 290 295 302 308 311 311 313 315 316 317 317 317 317 315 313 315 315 312 312 309 309 314 318 317 318 317 313 315 320 322 325 329 331 331 329 324 321 321 322 323 326 327 326 325
264 261 252 256 271 272 261 142 295 273 262 215 202 199 202 207 217 224 223 221 219 218 219 223 225 227 232 238 242 246 258 275 281 282 291 300 302 302 300 299 297 290 293 303 307 308 309 310 314 316 317 318 318 318 319 318 316 317 317 316 315 310 307 315 320 318 318 316 313 320 327 329 331 336 338 337 333 328 324 325 328 329 329 329 330 334
250 246 245 248 252 251 248 270 279 285 296 284 259 245 253 261 257 249 243 236 232 230 229 231 234 237 239 243 245 247 259 277 283 289 299 303 302 302 299 296 293 291 298 304 306 309 311 312 316 318 319 321 321 320 322 322 320 321 320 317 315 310 307 313 316 315 317 317 317 326 333 334 336 341 343 341 337 332 328 329 333 333 331 333 336 343
Height
1506 1507 1505 1502 1500 1500 1501 1501 1500 1499 1500 1501 1500 1500 1499 1499 1495 1494 1498 1498 1497 1501 1504 1506 1508 1510 1512 1512 1512 1514 1514 1512 1511 1510 1510 1510 1511 1511 1511 1511 1510 1510 1510 1510 1510 1510 1511 1511 1512 1512 1513 1513 1514 1514 1514 1514 1515 1515 1516 1516 1517 1518 1519 1520 1520 1521 1522 1523 1523 1523 1523 1524 1525 1524 1524 1524 1524 1523 1523 1522 1522 1522 1521 1521 1520 1520
1508 1508 1502 1498 1500 1501 1501 1501 1500 1500 1500 1500 1499 1498 1497 1495 1494 1494 1497 1497 1497 1500 1503 1506 1508 1510 1512 1512 1512 1513 1513 1513 1512 1512 1511 1511 1511 1511 1511 1512 1512 1512 1512 1512 1512 1511 1512 1512 1513 1513 1513 1514 1514 1514 1515 1515 1515 1515 1516 1516 1517 1518 1519 1520 1520 1521 1522 1522 1522 1523 1522 1523 1524 1523 1523 1522 1522 1521 1521 1520 1520 1520 1520 1519 1519 1519
1508 1504 1497 1497 1499 1500 1501 1501 1501 1500 1500 1499 1497 1498 1497 1492 1491 1495 1496 1496 1497 1498 1501 1505 1507 1508 1509 1510 1511 1511 1512 1514 1514 1513 1513 1512 1511 1512 1512 1512 1512 1512 1513 1513 1513 1513 1513 1513 1513 1514 1513 1514 1515 1515 1515 1515 1515 1516 1516 1517 1518 1518 1519 1519 1520 1520 1521 1521 1521 1522 1521 1521 1521 1521 1521 1520 1520 1519 1519 1518 1518 1518 1517 1517 1517 1517
1506 1498 1494 1497 1499 1500 1501 1500 1501 1500 1498 1497 1495 1497 1495 1490 1494 1498 1497 1497 1497 1496 1498 1502 1504 1505 1507 1509 1509 1510 1511 1513 1514 1514 1514 1512 1511 1512 1512 1512 1512 1512 1513 1513 1514 1514 1514 1514 1513 1513 1513 1514 1515 1515 1516 1516 1516 1516 1516 1517 1517 1518 1519 1519 1519 1519 1519 1520 1520 1520 1520 1519 1519 1519 1519 1519 1519 1518 1518 1517 1516 1516 1515 1515 1514 1514
1500 1496 1496 1498 1499 1499 1500 1499 1499 1499 1496 1492 1492 1495 1493 1490 1495 1496 1496 1497 1496 1495 1496 1500 1504 1501 1502 1507 1507 1508 1511 1512 1514 1514 1513 1513 1512 1512 1512 1512 1513 1514 1514 1514 1514 1514 1513 1514 1513 1513 1513 1514 1515 1516 1516 1516 1516 1516 1516 1516 1517 1517 1518 1518 1518 1518 1518 1519 1519 1519 1519 1519 1518 1518 1518 1519 1519 1518 1517 1517 1516 1515 1514 1514 1513 1513
1498 1496 1498 1499 1498 1497 1499 1498 1496 1497 1497 1491 1488 1490 1491 1493 1494 1495 1497 1497 1497 1497 1492 1498 1507 1499 1494 1502 1503 1503 1508 1510 1512 1512 1512 1513 1512 1512 1512 1513 1514 1514 1514 1514 1513 1514 1514 1514 1514 1513 1514 1515 1516 1516 1516 1516 1516 1516 1516 1516 1517 1517 1517 1517 1517 1517 1517 1518 1518 1518 1518 1518 1518 1517 1517 1517 1518 1518 1517 1516 1515 1514 1513 1513 1512 1512
1496 1497 1498 1499 1498 1497 1498 1496 1493 1496 1497 1495 1489 1487 1491 1494 1494 1495 1496 1499 1501 1496 1489 1494 1506 1501 1493 1495 1496 1500 1504 1505 1508 1510 1510 1511 1511 1510 1511 1512 1513 1513 1514 1514 1514 1514 1514 1514 1514 1514 1514 1515 1516 1516 1516 1516 1516 1516 1516 1516 1516 1516 1516 1516 1516 1516 1517 1517 1517 1517 1517 1517 1517 1516 1516 1515 1516 1516 1516 1515 1514 1514 1513 1512 1511 1511
1496 1498 1498 1498 1498 1497 1495 1493 1493 1495 1497 1496 1491 1491 1494 1494 1495 1495 1494 1497 1495 1490 1489 1489 1496 1501 1494 1488 1490 1496 1501 1502 1504 1506 1506 1508 1508 1509 1510 1511 1512 1512 1513 1513 1514 1514 1514 1514 1514 1514 1514 1515 1515 1515 1516 1516 1516 1516 1516 1516 1516 1516 1515 1515 1515 1515 1516 1516 1516 1516 1516 1515 1515 1515 1514 1514 1514 1514 1513 1513 1512 1512 1511 1511 1510 1510
1494 1498 1498 1498 1498 1495 1492 1492 1493 1495 1496 1494 1492 1493 1494 1493 1495 1493 1493 1494 1489 1492 1496 1486 1489 1500 1493 1485 1490 1494 1498 1500 1500 1500 1501 1503 1505 1507 1508 1509 1510 1511 1512 1512 1513 1513 1513 1514 1514 1514 1514 1514 1514 1515 1515 1516 1516 1516 1516 1515 1515 1514 1514 1514 1515 1515 1515 1515 1515 1514 1514 1514 1514 1514 1513 1513 1513 1512 1512 1511 1511 1510 1509 1508 1508 1508
1495 1498 1497 1497 1497 1493 1491 1492 1493 1495 1494 1492 1493 1494 1493 1493 1493 1492 1494 1491 1488 1498 1499 1482 1484 1497 1490 1485 1492 1496 1496 1495 1493 1495 1497 1499 1502 1504 1506 1508 1509 1510 1511 1512 1512 1513 1513 1513 1513 1513 1513 1514 1514 1514 1515 1515 1515 1515 1515 1515 1514 1514 1514 1514 1514 1514 1514 1514 1514 1514 1514 1514 1513 1513 1512 1512 1511 1511 1510 1510 1509 1508 1507 1506 1506 1505
1494 1497 1498 1497 1496 1493 1492 1493 1493 1495 1493 1492 1493 1492 1490 1489 1487 1490 1490 1488 1495 1501 1491 1478 1479 1491 1491 1483 1484 1489 1488 1484 1485 1490 1494 1496 1499 1502 1504 1506 1507 1508 1510 1511 1511 1512 1512 1512 1512 1513 1513 1513 1514 1514 1514 1515 1515 1515 1515 1515 1515 1515 1515 1514 1514 1514 1514 1514 1514 1514 1513 1513 1512 1512 1511 1511 1510 1509 1509 1508 1507 1507 1506 1505 1504 1503
1494 1497 1496 1494 1496 1494 1494 1494 1492 1494 1493 1493 1493 1490 1492 1488 1483 1488 1487 1491 1505 1499 1483 1479 1479 1488 1494 1480 1472 1478 1478 1477 1481 1485 1489 1493 1495 1499 1502 1503 1505 1507 1508 1509 1510 1511 1511 1511 1512 1512 1512 1513 1513 1514 1514 1515 1515 1515 1515 1515 1515 1515 1515 1515 1514 1514 1514 1514 1513 1513 1512 1512 1511 1511 1510 1510 1509 1508 1507 1507 1506 1505 1504 1503 1502 1501
1491 1491 1491 1493 1496 1495 1495 1494 1491 1492 1492 1493 1490 1489 1497 1496 1492 1497 1494 1492 1497 1487 1480 1482 1483 1489 1487 1472 1467 1472 1474 1476 1478 1480 1485 1489 1492 1496 1499 1501 1503 1504 1506 1507 1508 1510 1510 1510 1511 1511 1512 1512 1513 1514 1514 1514 1514 1514 1515 1515 1515 1515 1514 1514 1514 1514 1514 1513 1513 1512 1511 1511 1510 1510 1509 1508 1507 1507 1506 1505 1504 1503 1502 1501 1500 1499
1492 1488 1488 1493 1494 1493 1495 1493 1490 1490 1490 1491 1489 1491 1499 1501 1507 1513 1502 1493 1489 1482 1478 1480 1486 1490 1478 1467 1468 1470 1473 1476 1477 1480 1484 1487 1490 1494 1496 1499 1501 1502 1504 1505 1506 1508 1508 1509 1510 1510 1511 1512 1512 1512 1512 1512 1513 1514 1514 1514 1514 1514 1514 1514 1514 1514 1513 1513 1512 1511 1510 1510 1509 1508 1507 1506 1505 1504 1503 1502 1501 1500 1499 1498 1497 1496
1501 1498 1489 1490 1492 1491 1492 1491 1490 1489 1488 1489 1487 1491 1495 1495 1504 1510 1500 1494 1491 1483 1479 1482 1490 1487 1474 1471 1473 1472 1475 1477 1478 1481 1483 1487 1490 1493 1495 1497 1499 1500 1502 1503 1505 1506 1507 1508 1509 1509 1510 1511 1511 1511 1512 1512 1512 1513 1513 1513 1514 1514 1514 1514 1513 1513 1512 1512 1511 1510 1509 1508 1507 1507 1506 1505 1504 1502 1501 1500 1499 1498 1496 1495 1494 1493
1501 1497 1486 1488 1490 1489 1491 1490 1490 1491 1491 1489 1487 1491 1493 1487 1491 1497 1496 1495 1497 1496 1490 1486 1484 1473 1468 1473 1472 1473 1478 1478 1480 1482 1482 1487 1489 1491 1495 1495 1496 1499 1500 1502 1503 1504 1505 1506 1507 1507 1508 1509 1510 1510 1511 1511 1511 1512 1512 1512 1513 1513 1513 1512 1512 1511 1510 1510 1509 1508 1507 1506 1505 1505 1504 1503 1502 1501 1499 1498 1497 1495 1494 1493 1491 1490
1499 1494 1485 1490 1491 1489 1492 1491 1491 1494 1493 1491 1491 1490 1488 1485 1488 1496 1499 1498 1503 1509 1496 1481 1476 1467 1464 1473 1473 1475 1479 1477 1480 1482 1482 1486 1488 1490 1492 1492 1495 1497 1497 1500 1501 1502 1504 1504 1505 1506 1507 1508 1508 1509 1509 1510 1510 1510 1510 1511 1511 1511 1511 1510 1510 1509 1508 1507 1506 1505 1505 1504 1503 1502 1501 1500 1499 1498 1496 1495 1494 1492 1491 1490 1488 1486
1498 1495 1485 1487 1491 1489 1492 1493 1491 1492 1492 1491 1492 1488 1484 1487 1489 1494 1504 1505 1505 1506 1489 1474 1477 1472 1466 1472 1475 1475 1477 1478 1479 1480 1481 1485 1486 1488 1489 1490 1493 1494 1496 1498 1499 1501 1502 1502 1504 1504 1505 1506 1506 1507 1508 1508 1508 1508 1508 1508 1508 1508 1508 1508 1507 1506 1506 1504 1503 1502 1502 1501 1500 1499 1498 1497 1496 1494 1493 1492 1490 1489 1487 1486 1485 1483
1497 1499 1487 1482 1488 1490 1491 1493 1492 1490 1490 1490 1489 1486 1488 1496 1494 1493 1505 1510 1504 1502 1491 1476 1473 1472 1467 1466 1469 1471 1472 1475 1477 1478 1480 1482 1483 1485 1486 1489 1492 1493 1495 1497 1497 1500 1500 1501 1503 1503 1504 1505 1505 1505 1505 1506 1506 1506 1506 1505 1505 1505 1505 1504 1504 1503 1502 1501 1500 1499 1498 1497 1497 1496 1495 1493 1492 1491 1489 1488 1487 1485 1483 1482 1481 1479
1495 1503 1497 1484 1485 1490 1489 1491 1491 1488 1488 1490 1489 1486 1487 1493 1493 1490 1493 1496 1497 1500 1495 1484 1476 1470 1461 1455 1459 1465 1466 1469 1474 1476 1477 1478 1479 1482 1484 1487 1489 1491 1493 1494 1495 1497 1498 1500 1501 1501 1503 1503 1503 1504 1503 1503 1503 1503 1503 1503 1502 1502 1501 1501 1500 1499 1498 1497 1496 1495 1494 1493 1492 1491 1490 1489 1488 1486 1485 1484 1483 1481 1479 1478 1476 1475
1493 1502 1503 1490 1486 1491 1489 1485 1484 1482 1482 1487 1489 1488 1487 1488 1489 1489 1486 1483 1489 1495 1493 1492 1487 1469 1454 1452 1457 1462 1464 1466 1470 1472 1473 1475 1476 1479 1482 1484 1486 1488 1490 1492 1494 1495 1496 1498 1499 1500 1501 1501 1501 1502 1501 1501 1500 1500 1500 1499 1499 1498 1497 1497 1496 1495 1494 1493 1492 1491 1489 1488 1487 1486 1485 1484 1483 1481 1480 1479 1478 1476 1475 1473 1471 1470
1494 1498 1501 1494 1489 1489 1484 1480 1480 1481 1481 1483 1484 1483 1484 1484 1486 1495 1494 1479 1478 1486 1484 1487 1488 1469 1453 1454 1458 1460 1463 1465 1467 1469 1470 1472 1474 1477 1479 1482 1484 1486 1488 1489 1491 1493 1495 1496 1497 1498 1498 1498 1499 1499 1499 1498 1497 1497 1496 1496 1495 1495 1494 1493 1492 1491 1490 1489 1487 1486 1485 1484 1482 1481 1479 1478 1477 1476 1475 1474 1472 1471 1470 1468 1466 1466
1495 1496 1498 1496 1488 1483 1481 1482 1484 1484 1483 1484 1484 1482 1481 1482 1484 1493 1496 1482 1477 1481 1477 1480 1486 1469 1454 1456 1459 1460 1464 1465 1467 1469 1469 1470 1472 1475 1477 1480 1483 1484 1486 1487 1489 1491 1492 1493 1494 1495 1495 1496 1496 1495 1495 1495 1494 1494 1493 1493 1492 1491 1491 1490 1488 1487 1486 1484 1482 1481 1480 1478 1477 1476 1474 1473 1472 1470 1469 1469 1467 1467 1465 1463 1461 1460
1498 1497 1498 1495 1485 1476 1477 1482 1484 1484 1485 1486 1484 1481 1481 1482 1481 1482 1484 1481 1483 1483 1478 1485 1488 1469 1455 1458 1460 1461 1464 1465 1467 1469 1469 1471 1472 1473 1476 1478 1481 1483 1484 1485 1487 1488 1490 1491 1491 1492 1492 1493 1493 1492 1492 1492 1492 1492 1491 1490 1489 1488 1487 1486 1484 1483 1481 1479 1477 1476 1474 1473 1471 1470 1469 1467 1466 1464 1464 1463 1462 1461 1459 1457 1456 1454
1498 1496 1496 1499 1496 1488 1485 1486 1486 1485 1486 1484 1479 1478 1480 1480 1480 1482 1481 1484 1490 1486 1479 1486 1484 1464 1456 1461 1461 1461 1463 1463 1465 1467 1469 1470 1471 1473 1475 1477 1479 1481 1481 1483 1485 1486 1487 1488 1489 1490 1490 1491 1491 1491 1490 1490 1490 1489 1488 1487 1486 1484 1483 1481 1480 1478 1476 1474 1472 1470 1469 1467 1465 1464 1463 1462 1460 1459 1458 1457 1455 1454 1452 1451 1450 1448
1496 1493 1493 1501 1505 1502 1496 1489 1483 1481 1481 1481 1478 1478 1479 1478 1480 1484 1485 1487 1490 1484 1477 1480 1475 1460 1455 1460 1460 1459 1461 1461 1463 1465 1467 1469 1470 1472 1474 1476 1478 1479 1479 1481 1483 1484 1485 1486 1487 1488 1488 1489 1489 1489 1489 1488 1487 1486 1485 1484 1482 1480 1478 1476 1475 1472 1470 1469 1467 1465 1463 1462 1460 1459 1457 1456 1455 1453 1452 1451 1450 1448 1447 1446 1444 1443
1493 1490 1489 1493 1494 1492 1487 1480 1474 1476 1479 1481 1479 1478 1478 1477 1477 1480 1484 1484 1482 1480 1476 1471 1467 1461 1457 1456 1456 1455 1456 1459 1461 1462 1464 1467 1469 1471 1472 1474 1476 1476 1478 1479 1480 1482 1483 1484 1485 1486 1486 1487 1487 1487 1486 1485 1484 1483 1481 1479 1478 1476 1473 1471 1469 1467 1465 1463 1461 1460 1458 1457 1456 1454 1452 1451 1449 1448 1447 1446 1445 1443 1442 1441 1439 1437
1492 1491 1488 1487 1486 1482 1478 1475 1473 1475 1478 1479 1478 1476 1475 1475 1475 1478 1481 1479 1477 1481 1477 1463 1460 1463 1457 1454 1454 1452 1453 1457 1459 1460 1463 1464 1467 1469 1470 1472 1473 1474 1476 1477 1479 1480 1481 1482 1483 1483 1484 1484 1484 1483 1483 1481 1480 1479 1477 1475 1473 1471 1469 1467 1464 1462 1461 1459 1457 1456 1454 1453 1451 1449 1448 1446 1445 1443 1442 1440 1439 1438 1436 1435 1433 1432
1491 1489 1484 1482 1482 1477 1475 1475 1473 1474 1474 1474 1476 1475 1472 1472 1472 1474 1475 1474 1475 1478 1471 1459 1460 1461 1455 1452 1452 1451 1452 1456 1458 1460 1462 1463 1465 1467 1468 1470 1471 1472 1474 1475 1477 1478 1479 1480 1481 1481 1481 1481 1480 1480 1479 1477 1476 1474 1472 1470 1468 1467 1465 1463 1461 1459 1457 1455 1454 1452 1450 1449 1447 1445 1444 1442 1440 1439 1437 1436 1434 1432 1431 1430 1428 1426
1491 1487 1481 1481 1478 1473 1473 1473 1471 1472 1472 1469 1469 1470 1468 1467 1467 1466 1467 1467 1469 1468 1461 1457 1460 1456 1451 1450 1449 1449 1453 1456 1458 1460 1461 1462 1464 1465 1466 1468 1469 1470 1472 1473 1474 1476 1477 1478 1478 1478 1478 1477 1477 1476 1474 1473 1471 1469 1468 1466 1464 1462 1461 1459 1458 1455 1453 1452 1450 1448 1446 1444 1443 1441 1439 1438 1436 1434 1433 1431 1429 1427 1426 1424 1423 1421
1493 1487 1480 1480 1481 1475 1470 1469 1469 1468 1467 1464 1463 1461 1461 1462 1461 1461 1460 1460 1463 1463 1457 1457 1458 1450 1445 1446 1447 1450 1454 1456 1457 1459 1460 1461 1462 1463 1465 1466 1467 1469 1470 1471 1473 1473 1474 1475 1475 1475 1474 1474 1473 1471 1470 1468 1466 1465 1464 1462 1460 1459 1457 1456 1454 1452 1450 1448 1446 1444 1443 1441 1439 1437 1435 1433 1431 1429 1428 1426 1424 1422 1420 1419 1417 1415
1492 1489 1481 1483 1486 1477 1467 1468 1467 1462 1460 1461 1457 1453 1456 1458 1456 1454 1453 1454 1457 1459 1456 1456 1454 1446 1441 1443 1447 1450 1453 1454 1456 1457 1458 1459 1461 1462 1464 1465 1466 1468 1468 1470 1471 1471 1472 1472 1472 1471 1471 1470 1469 1467 1466 1464 1462 1461 1460 1458 1456 1455 1454 1452 1450 1448 1446 1444 1442 1440 1439 1437 1435 1432 1430 1428 1426 1424 1422 1420 1418 1416 1414 1413 1411 1409
1489 1489 1485 1484 1486 1476 1465 1464 1463 1463 1466 1461 1448 1445 1450 1451 1448 1446 1446 1447 1449 1452 1453 1451 1445 1440 1440 1444 1447 1449 1451 1452 1454 1455 1457 1458 1459 1462 1463 1464 1465 1466 1467 1468 1469 1469 1470 1469 1469 1468 1467 1466 1465 1463 1462 1460 1459 1457 1455 1454 1453 1451 1450 1448 1446 1444 1442 1440 1439 1437 1434 1433 1430 1428 1426 1424 1421 1419 1417 1415 1412 1410 1408 1406 1404 1403
1487 1487 1485 1485 1487 1479 1467 1464 1468 1474 1469 1450 1436 1438 1441 1441 1441 1442 1441 1440 1440 1442 1442 1439 1436 1438 1442 1443 1445 1447 1449 1450 1452 1454 1456 1458 1459 1461 1462 1463 1464 1465 1466 1467 1467 1467 1467 1466 1466 1465 1463 1462 1461 1459 1458 1456 1455 1453 1452 1451 1449 1447 1446 1444 1442 1440 1438 1436 1434 1432 1430 1428 1426 1423 1421 1419 1416 1414 1411 1409 1406 1404 1401 1399 1397 1396
1485 1484 1483 1483 1484 1480 1471 1472 1482 1479 1456 1435 1431 1434 1433 1433 1434 1435 1434 1433 1433 1434 1434 1432 1432 1435 1439 1441 1442 1445 1447 1449 1452 1454 1456 1457 1459 1460 1461 1462 1463 1464 1465 1465 1465 1465 1465 1464 1463 1461 1460 1458 1457 1455 1454 1453 1452 1450 1449 1447 1445 1443 1442 1440 1438 1436 1434 1432 1430 1428 1426 1424 1421 1418 1416 1413 1411 1408 1405 1403 1400 1398 1395 1392 1390 1388
1479 1480 1480 1478 1479 1478 1475 1475 1475 1460 1440 1432 1433 1432 1431 1433 1434 1435 1435 1431 1429 1430 1429 1428 1428 1431 1436 1440 1442 1445 1447 1450 1452 1453 1455 1456 1458 1459 1460 1461 1462 1463 1464 1464 1463 1463 1462 1461 1459 1458 1456 1455 1453 1453 1452 1450 1449 1447 1445 1443 1442 1440 1438 1436 1434 1432 1430 1428 1426 1424 1422 1419 1417 1414 1411 1408 1406 1402 1400 1397 1394 1391 1388 1386 1383 1381
1470 1471 1472 1473 1474 1475 1473 1466 1456 1447 1440 1435 1431 1428 1430 1431 1431 1434 1436 1430 1425 1425 1425 1425 1427 1430 1436 1440 1442 1445 1448 1450 1450 1451 1453 1455 1457 1458 1460 1460 1461 1462 1462 1461 1461 1460 1459 1458 1456 1455 1453 1452 1451 1450 1449 1447 1446 1444 1442 1440 1439 1437 1435 1433 1431 1429 1427 1425 1423 1420 1418 1415 1413 1409 1406 1403 1400 1397 1394 1391 1387 1384 1382 1379 1376 1374
1463 1463 1464 1467 1466 1466 1468 1463 1457 1453 1445 1431 1422 1421 1423 1424 1424 1428 1431 1427 1420 1420 1422 1423 1426 1431 1435 1439 1442 1445 1447 1448 1446 1446 1450 1454 1456 1457 1459 1459 1460 1460 1459 1459 1458 1457 1456 1455 1453 1452 1451 1450 1449 1448 1447 1445 1443 1441 1439 1438 1436 1434 1432 1430 1428 1426 1423 1421 1419 1416 1414 1411 1408 1405 1401 1398 1395 1391 1388 1384 1381 1377 1374 1371 1368 1365
1457 1456 1457 1460 1459 1457 1461 1461 1456 1450 1436 1422 1418 1419 1421 1423 1423 1426 1432 1427 1418 1417 1422 1423 1426 1431 1435 1438 1441 1443 1445 1445 1442 1443 1449 1453 1454 1456 1458 1458 1458 1458 1457 1456 1456 1455 1454 1452 1450 1450 1449 1448 1447 1445 1444 1442 1440 1439 1437 1435 1434 1432 1429 1427 1425 1423 1420 1417 1415 1412 1409 1406 1403 1400 1397 1393 1390 1386 1382 1378 1374 1370 1367 1364 1361 1357
1454 1453 1454 1456 1454 1451 1452 1450 1444 1436 1425 1419 1420 1421 1422 1423 1424 1430 1437 1431 1421 1422 1425 1424 1428 1432 1434 1437 1441 1442 1443 1443 1443 1446 1451 1452 1453 1455 1456 1455 1455 1455 1454 1454 1453 1452 1451 1449 1449 1448 1447 1446 1445 1443 1441 1440 1438 1436 1434 1433 1431 1428 1426 1424 1422 1419 1417 1414 1411 1408 1405 1402 1399 1395 1392 1388 1384 1380 1376 1371 1367 1363 1360 1356 1353 1349
1450 1449 1450 1451 1449 1447 1446 1444 1438 1428 1419 1417 1420 1421 1421 1424 1427 1432 1433 1429 1426 1428 1427 1427 1431 1434 1436 1438 1440 1441 1442 1444 1445 1448 1450 1451 1452 1453 1453 1454 1454 1453 1453 1452 1451 1449 1449 1448 1447 1446 1445 1444 1442 1440 1439 1437 1435 1434 1432 1430 1428 1425 1423 1421 1418 1415 1413 1409 1407 1404 1401 1398 1394 1390 1387 1383 1379 1374 1369 1365 1361 1356 1352 1348 1345 1341
1447 1445 1445 1446 1445 1442 1440 1439 1436 1426 1417 1418 1422 1423 1423 1425 1428 1428 1426 1427 1429 1429 1429 1432 1435 1437 1439 1441 1440 1441 1443 1445 1447 1449 1450 1450 1452 1452 1452 1452 1452 1451 1451 1450 1448 1448 1447 1446 1445 1444 1443 1441 1440 1438 1437 1435 1433 1431 1429 1427 1425 1422 1419 1417 1414 1411 1408 1405 1403 1400 1397 1393 1389 1385 1382 1378 1374 1368 1363 1359 1354 1349 1345 1341 1337 1333
1448 1447 1444 1439 1438 1439 1438 1437 1436 1430 1422 1421 1424 1425 1424 1425 1427 1428 1429 1430 1430 1430 1432 1435 1437 1439 1442 1443 1442 1443 1444 1446 1448 1449 1450 1450 1450 1450 1451 1451 1450 1450 1449 1448 1447 1447 1445 1444 1443 1442 1440 1439 1438 1436 1435 1433 1430 1428 1426 1424 1421 1419 1416 1413 1410 1407 1404 1401 1398 1395 1392 1388 1385 1382 1378 1373 1369 1363 1358 1353 1348 1342 1338 1335 1330 1326
1450 1450 1446 1438 1435 1437 1436 1433 1433 1433 1430 1428 1428 1428 1428 1429 1431 1433 1432 1432 1432 1433 1434 1436 1438 1441 1443 1443 1444 1445 1445 1446 1448 1448 1448 1449 1449 1449 1449 1449 1449 1448 1447 1447 1446 1444 1443 1442 1440 1439 1438 1437 1436 1434 1432 1431 1428 1426 1423 1420 1417 1414 1411 1409 1406 1403 1400 1397 1394 1391 1388 1384 1381 1378 1374 1369 1364 1359 1353 1348 1343 1337 1333 1330 1325 1320
1446 1446 1448 1445 1440 1436 1433 1431 1433 1434 1433 1432 1431 1431 1432 1433 1434 1435 1434 1434 1435 1436 1436 1438 1440 1441 1442 1443 1444 1444 1445 1446 1446 1446 1447 1448 1448 1448 1448 1448 1447 1447 1445 1444 1443 1442 1441 1440 1438 1437 1436 1435 1434 1432 1430 1428 1426 1423 1420 1417 1414 1411 1408 1405 1403 1400 1397 1393 1390 1387 1384 1380 1378 1375 1370 1365 1360 1355 1350 1345 1339 1334 1329 1325 1321 1316
1444 1445 1448 1446 1441 1436 1433 1432 1433 1433 1432 1432 1432 1432 1433 1433 1433 1434 1435 1435 1436 1437 1438 1440 1441 1441 1442 1443 1443 1443 1444 1445 1445 1446 1446 1446 1447 1447 1446 1446 1445 1444 1443 1442 1441 1440 1439 1438 1437 1436 1434 1433 1432 1430 1428 1426 1423 1420 1417 1414 1411 1409 1406 1403 1400 1397 1394 1391 1387 1384 1380 1377 1375 1371 1366 1361 1357 1352 1348 1343 1337 1331 1325 1321 1316 1310
1445 1446 1446 1442 1440 1439 1436 1433 1433 1434 1433 1433 1434 1433 1434 1434 1434 1434 1435 1435 1436 1437 1438 1439 1439 1440 1441 1441 1442 1442 1443 1443 1444 1444 1444 1445 1445 1444 1444 1444 1443 1442 1441 1440 1439 1438 1437 1436 1435 1434 1432 1431 1430 1428 1426 1424 1421 1418 1415 1412 1409 1406 1403 1400 1397 1394 1391 1388 1385 1381 1378 1375 1372 1368 1363 1358 1354 1350 1344 1340 1335 1329 1323 1317 1311 1305
1448 1449 1448 1445 1443 1440 1437 1435 1436 1437 1435 1434 1434 1434 1435 1436 1435 1435 1435 1435 1435 1436 1437 1438 1438 1439 1439 1440 1441 1441 1441 1442 1442 1442 1442 1443 1443 1442 1442 1442 1441 1440 1439 1438 1437 1437 1436 1435 1434 1432 1431 1430 1427 1425 1423 1421 1418 1415 1412 1409 1406 1403 1400 1397 1394 1392 1389 1385 1382 1379 1376 1373 1370 1366 1361 1356 1352 1347 1341 1336 1332 1326 1320 1314 1308 1300
1451 1451 1451 1450 1447 1442 1437 1435 1437 1437 1435 1434 1434 1433 1433 1435 1435 1435 1435 1435 1435 1436 1436 1436 1437 1437 1438 1439 1439 1440 1440 1440 1440 1441 1441 1441 1441 1440 1440 1439 1439 1438 1437 1436 1436 1435 1434 1434 1433 1431 1430 1428 1425 1423 1421 1418 1415 1412 1409 1406 1403 1400 1397 1394 1392 1389 1387 1383 1380 1377 1375 1372 1368 1364 1359 1354 1349 1344 1339 1334 1330 1325 1318 1311 1305 1297
1449 1448 1447 1449 1448 1442 1438 1437 1438 1437 1435 1433 1433 1432 1433 1434 1434 1434 1433 1433 1434 1434 1435 1435 1436 1436 1437 1437 1438 1438 1439 1438 1438 1439 1439 1439 1439 1439 1438 1437 1437 1436 1436 1435 1435 1434 1433 1433 1432 1430 1428 1426 1424 1421 1418 1415 1413 1410 1406 1403 1400 1397 1395 1392 1389 1387 1385 1382 1379 1376 1373 1370 1366 1362 1358 1353 1348 1342 1336 1331 1328 1324 1318 1310 1301 1293
1442 1441 1441 1443 1441 1437 1435 1436 1438 1438 1436 1433 1433 1433 1433 1433 1433 1432 1431 1431 1432 1433 1433 1434 1434 1434 1435 1436 1436 1437 1437 1437 1437 1437 1437 1437 1437 1436 1436 1436 1435 1435 1435 1434 1434 1433 1433 1432 1430 1428 1427 1424 1422 1419 1416 1413 1410 1407 1404 1401 1397 1395 1393 1390 1388 1386 1383 1380 1378 1375 1372 1369 1365 1361 1356 1352 1347 1342 1335 1329 1324 1320 1316 1310 1300 1290